Weather History for KAVL - February, 2013

Change the Weather History Date:

Sunday, February 3, 2013

  Actual Average Record
Temperature  
Mean Temperature 39 °F 38 °F  
Max Temperature 48 °F 49 °F 77 °F (1989)
Min Temperature 29 °F 28 °F -5 °F (1917)
Degree Days  
Heating Degree Days 26 27  
Month to date heating degree days 92 81  
Since 1 July heating degree days 2339 2608  
Cooling Degree Days 0 0  
Month to date cooling degree days 0 0  
Year to date cooling degree days 0 0  
Moisture  
Dew Point 25 °F    
Average Humidity 62    
Maximum Humidity 89    
Minimum Humidity 34    
Precipitation  
Precipitation 0.01 in 0.14 in 1.79 in (1982)
Month to date precipitation 0.01 0.40  
Year to date precipitation 8.59 4.07  
Snow  
Snow T in 0.10 in 3.00 in (1961)
Month to date snowfall T 0.3  
Since 1 July snowfall T 5.4  
Snow Depth 0.00 in    
Sea Level Pressure  
Sea Level Pressure 29.95 in    
Wind  
Wind Speed 10 mph (NNW)    
Max Wind Speed 24 mph    
Max Gust Speed 35 mph    
Visibility 9 miles    
Events Snow    
T = Trace of Precipitation, MM = Missing Value Source: NWS Daily Summary

Daily Weather History Graph

Daily Weather History Graph

Search for Another Location

Airport or City:

Trip Planner

Search our weather history database for the weather conditions in past years. The results will help you decide how hot, cold, wet, or windy it might be!

Date:

Astronomy

Feb. 03, 2013 Rise Set
Actual Time 7:27 AM EST 6:00 PM EST
Civil Twilight 7:01 AM EST 6:27 PM EST
Nautical Twilight 6:31 AM EST 6:57 PM EST
Astronomical Twilight 6:01 AM EST 7:27 PM EST
Moon 12:53 AM EST (2/3) 11:38 AM EST (2/3)
Length of Visible Light 11h 25m
Length of Day
10h 32m
Waning Gibbous, 49% of the Moon is Illuminated
Feb 3
Waning Gibbous
Feb 10
New
Feb 17
First Quarter
Feb 25
Full
Mar 4
Last Quarter

Hourly Weather History & Observations

Time (EST) Temp. Windchill Dew Point Humidity Pressure Visibility Wind Dir Wind Speed Gust Speed Precip Events Conditions
12:54 AM 33.1 °F 26.9 °F 30.9 °F 92% 29.99 in 10.0 mi NNW 6.9 mph - N/A   Overcast
1:54 AM 35.1 °F 30.1 °F 28.9 °F 78% 29.97 in 10.0 mi NNW 5.8 mph - N/A   Overcast
2:54 AM 34.0 °F 28.8 °F 28.9 °F 82% 29.97 in 10.0 mi WNW 5.8 mph - N/A   Overcast
3:54 AM 34.0 °F 25.5 °F 21.9 °F 61% 29.95 in 10.0 mi NW 11.5 mph - N/A   Clear
4:54 AM 32.0 °F 27.5 °F 21.9 °F 66% 29.96 in 10.0 mi North 4.6 mph - N/A   Scattered Clouds
5:54 AM 32.0 °F - 21.9 °F 66% 29.97 in 10.0 mi Calm Calm - N/A   Mostly Cloudy
6:54 AM 30.9 °F - 23.0 °F 72% 29.96 in 10.0 mi Calm Calm - N/A   Mostly Cloudy
7:54 AM 32.0 °F 28.7 °F 23.0 °F 69% 29.95 in 10.0 mi NE 3.5 mph - N/A   Mostly Cloudy
8:54 AM 33.1 °F - 25.0 °F 72% 29.96 in 10.0 mi Calm Calm - N/A   Overcast
9:41 AM 33.8 °F 30.8 °F 28.4 °F 81% 29.93 in 1.8 mi North 3.5 mph - 0.00 in Snow Light Snow
9:50 AM 35.6 °F 32.8 °F 30.2 °F 81% 29.93 in 2.5 mi North 3.5 mph - 0.01 in Snow Light Snow
9:54 AM 35.1 °F 32.2 °F 30.0 °F 82% 29.96 in 5.0 mi North 3.5 mph - 0.01 in Snow Light Snow
10:36 AM 37.4 °F - 30.2 °F 75% 29.93 in 2.5 mi Calm Calm - 0.00 in Snow Light Snow
10:42 AM 37.4 °F 33.8 °F 32.0 °F 81% 29.93 in 3.0 mi North 4.6 mph - 0.00 in Snow Light Snow
10:54 AM 39.0 °F 35.7 °F 33.1 °F 79% 29.94 in 9.0 mi NNW 4.6 mph - 0.00 in   Overcast
11:54 AM 43.0 °F 38.2 °F 30.0 °F 60% 29.91 in 10.0 mi North 8.1 mph - N/A   Overcast
12:54 PM 45.0 °F 38.2 °F 28.9 °F 53% 29.89 in 10.0 mi North 15.0 mph 21.9 mph N/A   Partly Cloudy
1:54 PM 46.0 °F 38.8 °F 19.0 °F 34% 29.86 in 10.0 mi NW 18.4 mph 28.8 mph N/A   Clear
2:54 PM 46.0 °F 40.6 °F 21.0 °F 37% 29.88 in 10.0 mi NNW 11.5 mph 24.2 mph N/A   Partly Cloudy
3:54 PM 43.0 °F 34.0 °F 19.9 °F 40% 29.91 in 10.0 mi North 21.9 mph 29.9 mph N/A   Mostly Cloudy
4:54 PM 41.0 °F 32.5 °F 21.9 °F 47% 29.95 in 10.0 mi NNW 17.3 mph 29.9 mph N/A   Mostly Cloudy
5:54 PM 37.9 °F 30.0 °F 21.0 °F 51% 29.97 in 10.0 mi NNW 12.7 mph 21.9 mph N/A   Partly Cloudy
6:54 PM 36.0 °F 28.5 °F 21.0 °F 55% 29.98 in 10.0 mi NNW 10.4 mph - N/A   Clear
7:54 PM 36.0 °F 30.3 °F 23.0 °F 59% 30.00 in 10.0 mi North 6.9 mph 18.4 mph N/A   Clear
8:54 PM 34.0 °F 27.2 °F 19.9 °F 56% 30.02 in 10.0 mi North 8.1 mph - N/A   Scattered Clouds
9:54 PM 30.9 °F 20.7 °F 21.0 °F 67% 30.03 in 10.0 mi North 13.8 mph 21.9 mph N/A   Clear
10:54 PM 28.9 °F 16.9 °F 19.9 °F 69% 30.03 in 10.0 mi NNW 17.3 mph 28.8 mph N/A   Clear
11:54 PM 28.9 °F 15.8 °F 19.0 °F 67% 30.03 in 10.0 mi North 20.7 mph 28.8 mph N/A   Clear